OBJECT K, 42834

Orbit data source: Space-Track

You're viewing an Uncataloged Satellite

Recently launched and/or uncataloged satellites may have evolving metadata. Metadata may include but not limited to: Owner, Maufacturer, Bus, Motor, and Mission.

OBJECT K, 42834 is a satellite in SSO that was launched on Fri, 14 Jul 2017 UTC via a SOYUZ-2-1A launch vehicle from the Tyuratam Missile And Space Complex (TTMTR). Unknown objects in Earth's orbit typically refer to objects detected orbiting the Earth but have not yet been identified or cataloged. These objects could be anything from previously untracked satellites, spent rocket stages, debris from satellite collisions, or even natural meteoroids temporarily captured by Earth's gravity.

Loading next visibility...
Identifier
42834, 2017-042K
Orbit
SSO
Country
Flag of TBDTBD
Related business
None
Manufacturer
Unknown
Mission
Non-operational Civil Technology
Bus & Motor
Unknown
Mass
Unknown
Launch date (UTC)
2017-07-14 (9 years ago)
Launch vehicle
SOYUZ-2-1A
Launch site
Tyuratam Missile And Space Complex (TTMTR)
Object type
Unknown
Shape & HBR
Box + 2 Pan, 0.2 m
Radar Cross Section
0.092 m², Medium (>0.1 m² and < 1m²)

Expand to show TLE details & history
Last TLE update: 12 hours ago

TLE from 12 hours ago
0 OBJECT K
1 42834U 17042K   26034.45051238  .00007173  00000-0  47609-3 0  9995
2 42834  97.4043 200.6818 0009323 152.6615 207.5105 15.07492137466823
Epoch: 2026-02-03T10:48Z
TLE epoch observation values (Epoch: 2026-02-03T10:48:44.269Z)
Latitude
-0.0001°
Longitude
-95.13391°
Altitude
552.666 km
Speed
7.582 km/s
True Right ascension
13h 22m 43s
True Declination
0° 00' 00"
Sunlit
Object was in full shadow at epoch
Visualization orbit readout
Latitude
Unknown
Longitude
Unknown
Altitude
Unknown
Speed
Unknown
Apparent Right ascension
Unknown
Apparent Declination
Unknown
Sunlit
N/A
Visualization observer readout
Local Sidereal Time
00:19:30
Azimuth
Unknown
Elevation
Unknown
Doppler factor
Unknown
Orbital elements
Apogee altitude
547.299 km
Perigee altitude
534.398 km
Semi-major axis
6,918.986 km
Eccentricity
0.00093
Inclination
97.4043°
RAAN
200.6818°
Arg. of periapsis
152.6615°
True anomaly
207.4612°
Mean anomaly
207.5105°
Eccentric anomaly
207.48585°
Mean motion
3.7712 °/min
Orbital period
95.46 mins
BSTAR
0.00047609
Loading maneuver chart data...
Computing Atmospheric mass density...
Loading historical data...
Loading historical data...
Loading historical data...
Loading historical data...
Loading historical data...
Loading historical data...
Loading historical data...

Documentation

Showing up to 5 results
|